[[{"header":{"parameterUnit":"m.s-1","parameterCategory":1,"la1":30.2992,"la2":30.254,"lo1":-89.0895,"lo2":-89.0443,"dy":0.0025,"dx":0.0025,"nx":19,"ny":19,"refTime":"2026-04-11T09:00:00:Z","depth":0,"parameterNumber":2,"parameterNumberName":"U-component_of_WINDS"},"data":[0,0,0,-1.1764,-1.1764,-1.1771,-1.1771,-1.179,-1.179,0,0,0,0,0,0,0,0,0,0,0,-1.1766,-1.1767,-1.1764,-1.1764,-1.1771,-1.1771,-1.179,-1.179,0,0,0,0,0,0,0,0,0,0,0,-1.1766,-1.1767,-1.1767,-1.1764,-1.1771,-1.1771,-1.179,-1.1781,0,0,0,0,0,0,0,0,0,0,-1.1773,-1.1779,-1.1766,-1.1767,-1.1764,-1.1771,-1.1771,-1.1781,-1.1782,-1.179,0,-1.1798,0,-1.1794,-1.1792,-1.1792,0,0,0,-1.1761,-1.1778,-1.1776,-1.1767,-1.1764,-1.1771,-1.1767,-1.1781,-1.1782,-1.1792,-1.1798,-1.1799,-1.1795,-1.1792,-1.1792,-1.1851,-1.1851,0,0,-1.176,-1.177,-1.1775,-1.1777,-1.1776,-1.1767,-1.1767,-1.1782,-1.179,-1.1798,-1.1799,-1.1795,-1.1792,-1.1792,-1.185,-1.1851,0,0,0,-1.1762,-1.177,-1.1767,-1.1777,-1.1777,-1.1767,-1.1768,-1.1789,-1.1788,-1.1799,-1.1795,-1.1792,-1.1793,-1.185,-1.185,-1.1881,0,0,0,-1.1761,-1.1771,-1.1767,-1.1774,-1.1777,-1.1783,-1.1775,-1.1787,-1.1788,-1.1795,-1.1792,-1.1793,-1.1849,-1.185,-1.188,-1.1895,0,0,0,-1.1764,-1.1771,-1.1774,-1.1774,-1.1777,-1.1783,-1.1782,-1.1787,-1.1786,-1.1792,-1.1793,-1.1849,-1.185,-1.1878,-1.1892,-1.1914,0,0,0,-1.1771,-1.1801,-1.1774,-1.1807,-1.1777,-1.1801,-1.1781,-1.1799,-1.1808,-1.1793,-1.1849,-1.185,-1.1877,-1.189,-1.1912,-1.1935,-1.1945,0,0,-1.1815,-1.1807,-1.1825,-1.1801,-1.1833,-1.18,-1.1836,-1.1835,-1.1826,-1.1843,-1.1844,-1.188,-1.1892,-1.1914,-1.1996,-1.2004,0,0,0,-1.1842,-1.1856,-1.1862,-1.1871,-1.187,-1.1872,-1.1864,-1.1864,-1.1878,-1.1837,-1.1893,-1.19,-1.1912,-1.1923,-1.1929,-1.194,-1.1855,-1.1855,-1.1855,-1.192,-1.1907,-1.1937,-1.1925,-1.1934,-1.1926,-1.1932,-1.1931,-1.1916,-1.1929,-1.1934,-1.1986,-1.1998,-1.2003,-1.2015,-1.1944,-1.1944,-1.1945,-1.1945,-1.1984,-1.2001,-1.198,-1.2001,-1.1988,-1.2006,-1.2,-1.1989,-1.2004,-1.198,-1.1991,-1.1967,-1.2013,-1.2022,-1.1947,-1.1946,-1.1946,-1.1946,-1.1946,-1.2034,-1.204,-1.2039,-1.2051,-1.2061,-1.2049,-1.2065,-1.2052,-1.204,-1.205,-1.2055,-1.2054,-1.2053,-1.2053,-1.2053,-1.2053,-1.2054,-1.2054,-1.2054,-1.2088,-1.2085,-1.21,-1.2102,-1.2106,-1.211,-1.2102,-1.2106,-1.2108,-1.2097,-1.2097,-1.2082,-1.2019,-1.2004,-1.2057,-1.2056,-1.2056,-1.2055,-1.2055,-1.216,-1.2141,-1.2164,-1.2168,-1.217,-1.2182,-1.2165,-1.2175,-1.2176,-1.2185,-1.2167,-1.2122,-1.2113,-1.2108,-1.2095,-1.2169,-1.2169,-1.2169,-1.2169,-1.2203,-1.2197,-1.2218,-1.2226,-1.2232,-1.2219,-1.2246,-1.2241,-1.2232,-1.2233,-1.222,-1.2202,-1.2197,-1.2191,-1.2184,-1.2172,-1.2264,-1.2264,-1.2264,-1.2248,-1.2242,-1.2267,-1.2258,-1.2258,-1.2259,-1.2285,-1.2296,-1.2282,-1.2267,-1.2233,-1.2229,-1.22,-1.2191,-1.2177,-1.2166,-1.2144,0,0]},{"header":{"parameterUnit":"m.s-1","parameterCategory":1,"la1":30.2992,"la2":30.254,"lo1":-89.0895,"lo2":-89.0443,"dy":0.0025,"dx":0.0025,"nx":19,"ny":19,"refTime":"2026-04-11T09:00:00:Z","depth":0,"parameterNumber":3,"parameterNumberName":"V-component_of_WINDS"},"data":[0,0,0,2.8667,2.8669,2.8747,2.8747,2.8845,2.8846,0,0,0,0,0,0,0,0,0,0,0,2.8646,2.8647,2.8667,2.8669,2.8747,2.8747,2.8845,2.8846,0,0,0,0,0,0,0,0,0,0,0,2.8645,2.8646,2.8647,2.867,2.8747,2.8747,2.8845,2.8786,0,0,0,0,0,0,0,0,0,0,2.8711,2.8693,2.8646,2.8647,2.867,2.8747,2.8747,2.8783,2.879,2.881,0,2.883,0,2.884,2.8853,2.8853,0,0,0,2.8668,2.8687,2.8707,2.8647,2.8671,2.8746,2.8711,2.8787,2.8794,2.8819,2.8832,2.8835,2.8842,2.8853,2.8854,2.898,2.8981,0,0,2.8663,2.866,2.8702,2.8712,2.8702,2.8709,2.8714,2.8791,2.8804,2.8832,2.8838,2.8843,2.8854,2.8855,2.8979,2.898,0,0,0,2.8652,2.8657,2.8675,2.8708,2.8722,2.8711,2.8717,2.8801,2.8807,2.8839,2.8844,2.8855,2.8856,2.8979,2.898,2.9009,0,0,0,2.865,2.865,2.8673,2.8672,2.8721,2.8763,2.8725,2.8802,2.8811,2.8844,2.8855,2.8857,2.8978,2.8979,2.9007,2.9023,0,0,0,2.864,2.8649,2.8661,2.8671,2.8705,2.8762,2.8773,2.8804,2.8814,2.8853,2.8857,2.8978,2.8979,2.9004,2.9019,2.9054,0,0,0,2.8629,2.8686,2.8662,2.8727,2.8704,2.878,2.8772,2.8828,2.8865,2.8855,2.8978,2.898,2.9004,2.9017,2.9052,2.9083,2.9096,0,0,2.8698,2.8694,2.8733,2.8714,2.8793,2.8769,2.8852,2.8888,2.8894,2.895,2.8954,2.9007,2.9019,2.9054,2.917,2.918,0,0,0,2.8754,2.8781,2.8803,2.8839,2.8869,2.8895,2.892,2.8933,2.8981,2.8923,2.903,2.9037,2.9058,2.9072,2.9081,2.9098,2.8987,2.8986,2.8986,2.8846,2.8852,2.8917,2.8932,2.8966,2.8991,2.9019,2.9041,2.9036,2.9061,2.9077,2.9147,2.9164,2.9171,2.9189,2.9095,2.9095,2.9095,2.9095,2.8948,2.8988,2.8981,2.9041,2.9046,2.9096,2.9121,2.9116,2.9162,2.9135,2.9154,2.9123,2.9182,2.9198,2.9097,2.9097,2.9097,2.9097,2.9096,2.9009,2.9029,2.9045,2.9097,2.9136,2.9149,2.9193,2.9197,2.9199,2.9218,2.9235,2.9234,2.9233,2.9226,2.9226,2.9226,2.9227,2.9227,2.9227,2.9065,2.9082,2.912,2.9157,2.918,2.9211,2.9236,2.9258,2.9283,2.9281,2.9281,2.9273,2.9187,2.9165,2.9231,2.923,2.923,2.9229,2.9229,2.9164,2.9142,2.9201,2.9224,2.9267,2.9305,2.9309,2.9353,2.9372,2.9394,2.9382,2.9318,2.9313,2.9306,2.9288,2.9381,2.9381,2.9381,2.9381,2.9215,2.9213,2.9273,2.931,2.9346,2.9356,2.942,2.9439,2.9456,2.9467,2.9455,2.9431,2.9424,2.9423,2.9413,2.9396,2.9515,2.9515,2.9515,2.9276,2.9278,2.9332,2.935,2.9384,2.9412,2.9472,2.9513,2.9527,2.9521,2.9476,2.9471,2.9432,2.9419,2.9411,2.9397,2.9365,0,0]}]]